When you browse on this site, cookies collect data to enhance your experience and personalize the content and advertising you see.
Visit our Privacy Policy to learn more. By continuing to use the site, you agree to this use of cookies and data.
  • In Belgien
  • Länderverzeichnis
  • Für 7 Tage
  • Wassertemperatur
  • Satellitenkarten
  • Wetterkarte
  • Widgets
  • user-avatar
    Anmelden

    Stündliche Wetter Krivaya Gora

    Heute, 24 Juni, Montag

    Zeit Temperatur Niederschläge Wind Luftdruck Luftfeuchtigkeit
    00:00 +12°C° 0 mm 1 m/S 752 mmHg 68%
    01:00 +12°C° 0 mm 1 m/S 753 mmHg 66%
    02:00 +11°C° 0 mm 1 m/S 753 mmHg 65%
    03:00 +12°C° 0 mm 1 m/S 753 mmHg 65%
    04:00 +13°C° 0 mm 1 m/S 753 mmHg 64%
    05:00 +14°C° 0 mm 1 m/S 753 mmHg 63%
    06:00 +16°C° 0 mm 1 m/S 753 mmHg 57%
    07:00 +18°C° 0 mm 1 m/S 753 mmHg 51%
    08:00 +20°C° 0 mm 1 m/S 754 mmHg 44%
    09:00 +19°C° 0 mm 2 m/S 753 mmHg 48%
    10:00 +19°C° 0 mm 3 m/S 753 mmHg 51%
    11:00 +18°C° 0 mm 4 m/S 753 mmHg 55%
    12:00 +19°C° 0 mm 4 m/S 753 mmHg 53%
    13:00 +19°C° 0 mm 4 m/S 753 mmHg 50%
    14:00 +20°C° 0 mm 4 m/S 754 mmHg 48%
    15:00 +20°C° 0 mm 4 m/S 753 mmHg 47%
    16:00 +20°C° 0 mm 4 m/S 753 mmHg 46%
    17:00 +21°C° 0 mm 4 m/S 753 mmHg 45%
    18:00 +19°C° 0 mm 3 m/S 754 mmHg 53%
    19:00 +17°C° 0 mm 3 m/S 754 mmHg 62%
    20:00 +15°C° 0 mm 2 m/S 754 mmHg 70%
    21:00 +14°C° 0 mm 2 m/S 754 mmHg 71%
    22:00 +13°C° 0 mm 2 m/S 755 mmHg 72%
    23:00 +12°C° 0 mm 2 m/S 755 mmHg 73%

    Morgen, 25 Juni, Dienstag

    Zeit Temperatur Niederschläge Wind Luftdruck Luftfeuchtigkeit
    00:00 +10°C° 0 mm 2 m/S 755 mmHg 74%
    01:00 +10°C° 0 mm 2 m/S 756 mmHg 74%
    02:00 +9°C° 0 mm 2 m/S 756 mmHg 75%
    03:00 +10°C° 0 mm 2 m/S 756 mmHg 74%
    04:00 +10°C° 0 mm 2 m/S 756 mmHg 73%
    05:00 +12°C° 0 mm 2 m/S 756 mmHg 72%
    06:00 +14°C° 0 mm 2 m/S 756 mmHg 66%
    07:00 +16°C° 0 mm 2 m/S 757 mmHg 60%
    08:00 +17°C° 0 mm 2 m/S 757 mmHg 54%
    09:00 +18°C° 0 mm 2 m/S 757 mmHg 50%
    10:00 +19°C° 0 mm 3 m/S 757 mmHg 45%
    11:00 +20°C° 0 mm 3 m/S 757 mmHg 41%
    12:00 +20°C° 0 mm 3 m/S 757 mmHg 42%
    13:00 +20°C° 0 mm 3 m/S 756 mmHg 43%
    14:00 +20°C° 0 mm 3 m/S 756 mmHg 45%
    15:00 +20°C° 0 mm 2 m/S 756 mmHg 48%
    16:00 +19°C° 0 mm 2 m/S 756 mmHg 51%
    17:00 +20°C° 0 mm 1 m/S 756 mmHg 54%
    18:00 +19°C° 0 mm 1 m/S 756 mmHg 59%
    19:00 +18°C° 0 mm 1 m/S 755 mmHg 65%
    20:00 +15°C° 0 mm 1 m/S 755 mmHg 71%
    21:00 +14°C° 0 mm 1 m/S 755 mmHg 73%
    22:00 +14°C° 0 mm 1 m/S 755 mmHg 75%
    23:00 +13°C° 0 mm 1 m/S 755 mmHg 77%

    übermorgen, 26 Juni, Mittwoch

    Zeit Temperatur Niederschläge Wind Luftdruck Luftfeuchtigkeit
    00:00 +13°C° 0 mm 1 m/S 755 mmHg 75%
    01:00 +13°C° 0 mm 1 m/S 755 mmHg 74%
    02:00 +13°C° 0 mm 1 m/S 754 mmHg 72%
    03:00 +14°C° 0 mm 1 m/S 754 mmHg 72%
    04:00 +14°C° 0 mm 1 m/S 754 mmHg 72%
    05:00 +14°C° 0 mm 1 m/S 753 mmHg 72%
    06:00 +16°C° 0 mm 2 m/S 753 mmHg 65%
    07:00 +17°C° 0 mm 3 m/S 753 mmHg 58%
    08:00 +19°C° 0 mm 3 m/S 753 mmHg 51%
    09:00 +19°C° 0.1 mm 3 m/S 753 mmHg 51%
    10:00 +19°C° 0.1 mm 3 m/S 752 mmHg 51%
    11:00 +20°C° 0.1 mm 3 m/S 752 mmHg 51%
    12:00 +20°C° 0.2 mm 3 m/S 751 mmHg 53%
    13:00 +20°C° 0.2 mm 3 m/S 751 mmHg 56%
    14:00 +20°C° 0.2 mm 3 m/S 751 mmHg 58%
    15:00 +19°C° 0.7 mm 3 m/S 750 mmHg 66%
    16:00 +18°C° 0.7 mm 2 m/S 750 mmHg 73%
    17:00 +18°C° 0.7 mm 2 m/S 749 mmHg 81%
    18:00 +16°C° 0.1 mm 1 m/S 749 mmHg 83%
    19:00 +15°C° 0.1 mm 1 m/S 749 mmHg 85%
    20:00 +14°C° 0.1 mm 1 m/S 748 mmHg 88%
    21:00 +12°C° 0 mm 0 m/S 748 mmHg 89%
    22:00 +11°C° 0 mm 0 m/S 748 mmHg 90%
    23:00 +10°C° 0 mm 0 m/S 748 mmHg 91%

    27 Juni, Donnerstag

    Zeit Temperatur Niederschläge Wind Luftdruck Luftfeuchtigkeit
    00:00 +10°C° 0 mm 0 m/S 747 mmHg 92%
    01:00 +11°C° 0 mm 1 m/S 747 mmHg 94%
    02:00 +10°C° 0 mm 1 m/S 746 mmHg 95%
    03:00 +10°C° 0 mm 2 m/S 746 mmHg 94%
    04:00 +10°C° 0 mm 2 m/S 745 mmHg 93%
    05:00 +12°C° 0 mm 2 m/S 745 mmHg 92%
    06:00 +13°C° 0 mm 3 m/S 744 mmHg 85%
    07:00 +14°C° 0 mm 3 m/S 744 mmHg 78%
    08:00 +17°C° 0 mm 4 m/S 743 mmHg 70%
    09:00 +17°C° 0 mm 4 m/S 742 mmHg 67%
    10:00 +18°C° 0 mm 4 m/S 742 mmHg 63%
    11:00 +19°C° 0 mm 4 m/S 741 mmHg 59%
    12:00 +18°C° 0.1 mm 4 m/S 741 mmHg 65%
    13:00 +18°C° 0.1 mm 3 m/S 740 mmHg 70%
    14:00 +17°C° 0.1 mm 3 m/S 739 mmHg 75%
    15:00 +17°C° 0.1 mm 3 m/S 739 mmHg 79%
    16:00 +16°C° 0.1 mm 2 m/S 738 mmHg 82%
    17:00 +16°C° 0.1 mm 2 m/S 738 mmHg 86%
    18:00 +15°C° 0 mm 2 m/S 737 mmHg 87%
    19:00 +15°C° 0 mm 2 m/S 737 mmHg 88%
    20:00 +15°C° 0 mm 1 m/S 737 mmHg 90%
    21:00 +14°C° 0 mm 2 m/S 737 mmHg 91%
    22:00 +14°C° 0 mm 2 m/S 736 mmHg 92%
    23:00 +12°C° 0 mm 3 m/S 736 mmHg 93%

    28 Juni, Freitag

    Zeit Temperatur Niederschläge Wind Luftdruck Luftfeuchtigkeit
    00:00 +12°C° 0 mm 3 m/S 736 mmHg 93%
    01:00 +12°C° 0 mm 3 m/S 735 mmHg 93%
    02:00 +11°C° 0 mm 3 m/S 735 mmHg 93%
    03:00 +11°C° 0 mm 3 m/S 735 mmHg 91%
    04:00 +12°C° 0 mm 3 m/S 734 mmHg 89%
    05:00 +12°C° 0 mm 4 m/S 734 mmHg 87%
    06:00 +12°C° 0 mm 4 m/S 734 mmHg 82%
    07:00 +13°C° 0 mm 4 m/S 734 mmHg 77%
    08:00 +14°C° 0 mm 5 m/S 733 mmHg 71%
    09:00 +13°C° 0.4 mm 5 m/S 733 mmHg 77%
    10:00 +13°C° 0.4 mm 5 m/S 733 mmHg 83%
    11:00 +12°C° 0.4 mm 4 m/S 733 mmHg 89%
    12:00 +12°C° 1.8 mm 5 m/S 732 mmHg 91%
    13:00 +12°C° 1.8 mm 5 m/S 732 mmHg 94%
    14:00 +10°C° 1.8 mm 5 m/S 732 mmHg 96%
    15:00 +11°C° 0.4 mm 4 m/S 732 mmHg 96%
    16:00 +11°C° 0.4 mm 4 m/S 732 mmHg 96%
    17:00 +11°C° 0.4 mm 4 m/S 732 mmHg 96%
    18:00 +11°C° 0.3 mm 4 m/S 732 mmHg 97%
    19:00 +11°C° 0.3 mm 4 m/S 732 mmHg 97%
    20:00 +10°C° 0.3 mm 4 m/S 731 mmHg 97%
    21:00 +10°C° 0.3 mm 4 m/S 731 mmHg 97%
    22:00 +10°C° 0.3 mm 4 m/S 731 mmHg 98%
    23:00 +10°C° 0.3 mm 4 m/S 730 mmHg 98%

    29 Juni, Samstag

    Zeit Temperatur Niederschläge Wind Luftdruck Luftfeuchtigkeit
    00:00 +10°C° 2 mm 4 m/S 730 mmHg 98%
    01:00 +11°C° 2 mm 4 m/S 729 mmHg 98%
    02:00 +11°C° 2 mm 3 m/S 729 mmHg 98%
    03:00 +11°C° 2 mm 3 m/S 729 mmHg 98%
    04:00 +11°C° 2 mm 3 m/S 729 mmHg 98%
    05:00 +11°C° 2 mm 3 m/S 728 mmHg 99%
    06:00 +12°C° 0.2 mm 3 m/S 729 mmHg 98%
    07:00 +13°C° 0.2 mm 3 m/S 729 mmHg 97%
    08:00 +13°C° 0.2 mm 3 m/S 729 mmHg 97%
    09:00 +13°C° 0.6 mm 3 m/S 729 mmHg 96%
    10:00 +14°C° 0.6 mm 3 m/S 730 mmHg 96%
    11:00 +14°C° 0.6 mm 4 m/S 730 mmHg 96%
    12:00 +14°C° 0.6 mm 4 m/S 730 mmHg 95%
    13:00 +15°C° 0.6 mm 4 m/S 731 mmHg 93%
    14:00 +15°C° 0.6 mm 5 m/S 731 mmHg 92%
    15:00 +15°C° 0.5 mm 5 m/S 731 mmHg 92%
    16:00 +15°C° 0.5 mm 5 m/S 731 mmHg 92%
    17:00 +15°C° 0.5 mm 5 m/S 732 mmHg 91%
    18:00 +14°C° 0.2 mm 5 m/S 732 mmHg 93%
    19:00 +14°C° 0.2 mm 5 m/S 733 mmHg 94%
    20:00 +13°C° 0.2 mm 5 m/S 733 mmHg 96%
    21:00 +13°C° 0.2 mm 5 m/S 733 mmHg 96%
    22:00 +13°C° 0.2 mm 4 m/S 734 mmHg 96%
    23:00 +13°C° 0.2 mm 4 m/S 734 mmHg 97%
    Mehr zeigen